This is the latest recevied weather packets stored in our database for station/object NO9B. If no packets are shown the sender has not sent any weather packets the latest 10 day(s).
| Time | Temp. | Humidity | Pressure | Rain* | Wind** | Luminosity | Snow |
|---|---|---|---|---|---|---|---|
| 1788647414 | 23.33° C | 86% | 1018.2 hPa | 0 mm | - | 24 W/m² | - |
| 1788647114 | 23.33° C | 86% | 1018.2 hPa | 0 mm | - | 23 W/m² | - |
| 1788646809 | 23.33° C | 85% | 1018 hPa | 0 mm | - | 22 W/m² | - |
| 1788646505 | 23.33° C | 85% | 1018 hPa | 0 mm | - | 35 W/m² | - |
| 1788646201 | 23.89° C | 85% | 1018 hPa | 0 mm | - | 48 W/m² | - |
| 1788645897 | 23.89° C | 85% | 1017.8 hPa | 0 mm | - | 46 W/m² | - |
| 1788645596 | 23.89° C | 85% | 1017.9 hPa | 0 mm | - | 48 W/m² | - |
| 1788645292 | 23.89° C | 86% | 1017.8 hPa | 0 mm | - | 50 W/m² | - |
| 1788644988 | 23.89° C | 85% | 1017.8 hPa | 0 mm | - | 56 W/m² | - |
| 1788644684 | 23.89° C | 85% | 1017.5 hPa | 0 mm | - | 51 W/m² | - |
| 1788644383 | 23.89° C | 85% | 1017.8 hPa | 0 mm | - | 57 W/m² | - |
| 1788644080 | 23.89° C | 85% | 1017.7 hPa | 0 mm | - | 44 W/m² | - |
| 1788643775 | 23.89° C | 84% | 1017.8 hPa | 0 mm | - | 60 W/m² | - |
| 1788643470 | 23.89° C | 84% | 1017.7 hPa | 0 mm | - | 73 W/m² | - |
| 1788643169 | 24.44° C | 83% | 1017.7 hPa | 0 mm | - | 91 W/m² | - |
| 1788642865 | 25° C | 82% | 1017.7 hPa | 0 mm | - | 79 W/m² | - |
| 1788642561 | 25° C | 82% | 1017.6 hPa | 0 mm | - | 79 W/m² | - |
| 1788642261 | 25.56° C | 80% | 1017.6 hPa | 0 mm | - | 120 W/m² | - |
| 1788641960 | 25.56° C | 81% | 1017.3 hPa | 0 mm | - | 166 W/m² | - |
| 1788641655 | 25.56° C | 80% | 1017.4 hPa | 0 mm | - | 183 W/m² | - |
| 1788641354 | 26.11° C | 78% | 1017.5 hPa | 0 mm | - | 149 W/m² | - |
| 1788641050 | 26.11° C | 78% | 1017.6 hPa | 0 mm | - | 198 W/m² | - |
| 1788640749 | 26.11° C | 78% | 1017.5 hPa | 0 mm | - | 123 W/m² | - |
| 1788640444 | 26.11° C | 79% | 1017.5 hPa | 0 mm | - | 203 W/m² | - |
| 1788640140 | 26.11° C | 79% | 1017.5 hPa | 0 mm | - | 464 W/m² | - |
* Rain latest hour (hover to see other rain measurements)
** Current wind speed in m/s (hover to see current wind gust speed)